contact:dominique.lefevre@mio.osupytheas.fr, maurice.libes@osupytheas.fr, didier.mallarino@osupytheas.fr
Project:EMSO http://www.emso-fr.org/EMSO-France
Depth: 2436.0 m
Title:EMSO Ligure Ouest : Data MII capteur MICROCAT
DateTime_Computer,Latitude,Longitude,Temperature,Conductivity,Pressure,DateTime_Instrument
DateTime_Computer,Latitude,Longitude,degC,S m-1,dbar,DateTime_Instrument
2017-12-09T00:02:21Z,42.805,6.029,13.2954,4.59984,2472.002,2017-12-09T02:03:50Z
2017-12-09T00:05:24Z,42.805,6.029,13.2966,4.59972,2471.979,2017-12-09T02:06:53Z
2017-12-09T00:08:27Z,42.805,6.029,13.2970,4.59971,2471.979,2017-12-09T02:09:56Z
2017-12-09T00:11:30Z,42.805,6.029,13.2985,4.59975,2472.024,2017-12-09T02:12:59Z
2017-12-09T00:14:33Z,42.805,6.029,13.2968,4.59977,2472.01,2017-12-09T02:16:02Z
2017-12-09T00:17:35Z,42.805,6.029,13.2963,4.59984,2472.002,2017-12-09T02:19:05Z
2017-12-09T00:20:38Z,42.805,6.029,13.2958,4.59979,2471.987,2017-12-09T02:22:08Z
2017-12-09T00:23:41Z,42.805,6.029,13.2982,4.59968,2472.002,2017-12-09T02:25:11Z
2017-12-09T00:26:44Z,42.805,6.029,13.2962,4.59976,2472.002,2017-12-09T02:28:14Z
2017-12-09T00:29:47Z,42.805,6.029,13.2960,4.59978,2472.002,2017-12-09T02:31:16Z
2017-12-09T00:32:50Z,42.805,6.029,13.2957,4.59981,2471.987,2017-12-09T02:34:19Z
2017-12-09T00:35:53Z,42.805,6.029,13.2959,4.59992,2471.979,2017-12-09T02:37:22Z
2017-12-09T00:38:56Z,42.805,6.029,13.2966,4.59974,2471.964,2017-12-09T02:40:25Z
2017-12-09T00:41:59Z,42.805,6.029,13.2969,4.59978,2472.024,2017-12-09T02:43:28Z
2017-12-09T00:45:01Z,42.805,6.029,13.2958,4.59988,2471.979,2017-12-09T02:46:31Z
2017-12-09T00:48:04Z,42.805,6.029,13.2978,4.59970,2472.002,2017-12-09T02:49:34Z
2017-12-09T00:51:07Z,42.805,6.029,13.2966,4.59978,2471.979,2017-12-09T02:52:37Z
2017-12-09T00:54:10Z,42.805,6.029,13.2963,4.59975,2471.979,2017-12-09T02:55:40Z
2017-12-09T00:57:13Z,42.805,6.029,13.2978,4.59983,2471.979,2017-12-09T02:58:42Z
2017-12-09T01:00:16Z,42.805,6.029,13.2964,4.59992,2472.002,2017-12-09T03:01:45Z
2017-12-09T01:03:19Z,42.805,6.029,13.2976,4.59989,2471.987,2017-12-09T03:04:48Z
2017-12-09T01:06:22Z,42.805,6.029,13.2944,4.60001,2471.979,2017-12-09T03:07:51Z
2017-12-09T01:09:25Z,42.805,6.029,13.2945,4.60001,2471.979,2017-12-09T03:10:54Z
2017-12-09T01:12:27Z,42.805,6.029,13.2940,4.59987,2471.987,2017-12-09T03:13:57Z
2017-12-09T01:15:30Z,42.805,6.029,13.2939,4.59968,2471.979,2017-12-09T03:17:00Z
2017-12-09T01:18:33Z,42.805,6.029,13.2940,4.59968,2471.979,2017-12-09T03:20:03Z
2017-12-09T01:21:36Z,42.805,6.029,13.2932,4.59958,2471.979,2017-12-09T03:23:05Z
2017-12-09T01:24:39Z,42.805,6.029,13.2938,4.59958,2471.987,2017-12-09T03:26:08Z
2017-12-09T01:27:42Z,42.805,6.029,13.2936,4.59959,2471.987,2017-12-09T03:29:11Z
2017-12-09T01:30:45Z,42.805,6.029,13.2935,4.59958,2471.957,2017-12-09T03:32:14Z
2017-12-09T01:33:48Z,42.805,6.029,13.2940,4.59956,2471.979,2017-12-09T03:35:17Z
2017-12-09T01:36:50Z,42.805,6.029,13.2938,4.59958,2471.964,2017-12-09T03:38:20Z
2017-12-09T01:39:53Z,42.805,6.029,13.2934,4.59957,2471.987,2017-12-09T03:41:23Z
2017-12-09T01:42:56Z,42.805,6.029,13.2939,4.59956,2471.957,2017-12-09T03:44:26Z
2017-12-09T01:45:59Z,42.805,6.029,13.2938,4.59956,2471.979,2017-12-09T03:47:29Z
2017-12-09T01:49:02Z,42.805,6.029,13.2936,4.59958,2471.979,2017-12-09T03:50:31Z
2017-12-09T01:52:05Z,42.805,6.029,13.2935,4.59958,2472.002,2017-12-09T03:53:34Z
2017-12-09T01:55:08Z,42.805,6.029,13.2937,4.59957,2472.002,2017-12-09T03:56:37Z
2017-12-09T01:58:11Z,42.805,6.029,13.2937,4.59956,2471.964,2017-12-09T03:59:40Z
2017-12-09T02:01:14Z,42.805,6.029,13.2933,4.59958,2471.964,2017-12-09T04:02:43Z
2017-12-09T02:04:16Z,42.805,6.029,13.2939,4.59957,2472.002,2017-12-09T04:05:46Z
2017-12-09T02:07:19Z,42.805,6.029,13.2935,4.59958,2471.957,2017-12-09T04:08:49Z
2017-12-09T02:10:22Z,42.805,6.029,13.2935,4.59956,2471.957,2017-12-09T04:11:52Z
2017-12-09T02:13:25Z,42.805,6.029,13.2938,4.59957,2471.919,2017-12-09T04:14:55Z
2017-12-09T02:16:28Z,42.805,6.029,13.2940,4.59956,2471.979,2017-12-09T04:17:57Z
2017-12-09T02:19:31Z,42.805,6.029,13.2936,4.59956,2471.979,2017-12-09T04:21:00Z
2017-12-09T02:22:34Z,42.805,6.029,13.2937,4.59957,2472.002,2017-12-09T04:24:03Z
2017-12-09T02:25:37Z,42.805,6.029,13.2940,4.59957,2471.957,2017-12-09T04:27:06Z
2017-12-09T02:28:40Z,42.805,6.029,13.2937,4.59956,2471.979,2017-12-09T04:30:09Z
2017-12-09T02:31:42Z,42.805,6.029,13.2937,4.59957,2471.979,2017-12-09T04:33:12Z
2017-12-09T02:34:45Z,42.805,6.029,13.2937,4.59956,2471.957,2017-12-09T04:36:15Z
2017-12-09T02:37:48Z,42.805,6.029,13.2937,4.59957,2471.957,2017-12-09T04:39:18Z
2017-12-09T02:40:51Z,42.805,6.029,13.2936,4.59956,2471.919,2017-12-09T04:42:21Z
2017-12-09T02:43:54Z,42.805,6.029,13.2935,4.59955,2471.919,2017-12-09T04:45:23Z
2017-12-09T02:46:57Z,42.805,6.029,13.2934,4.59957,2471.964,2017-12-09T04:48:26Z
2017-12-09T02:50:00Z,42.805,6.029,13.2937,4.59956,2471.964,2017-12-09T04:51:29Z
2017-12-09T02:53:03Z,42.805,6.029,13.2935,4.59954,2471.957,2017-12-09T04:54:32Z
2017-12-09T02:56:06Z,42.805,6.029,13.2933,4.59956,2471.934,2017-12-09T04:57:35Z
2017-12-09T02:59:08Z,42.805,6.029,13.2935,4.59958,2471.957,2017-12-09T05:00:38Z
2017-12-09T03:02:11Z,42.805,6.029,13.2936,4.59956,2471.912,2017-12-09T05:03:41Z
2017-12-09T03:05:14Z,42.805,6.029,13.2932,4.59954,2471.934,2017-12-09T05:06:44Z
2017-12-09T03:08:17Z,42.805,6.029,13.2935,4.59956,2471.957,2017-12-09T05:09:47Z
2017-12-09T03:11:20Z,42.805,6.029,13.2939,4.59957,2471.957,2017-12-09T05:12:49Z
2017-12-09T03:14:23Z,42.805,6.029,13.2939,4.59958,2471.934,2017-12-09T05:15:52Z
2017-12-09T03:17:26Z,42.805,6.029,13.2936,4.59955,2471.957,2017-12-09T05:18:55Z
2017-12-09T03:20:29Z,42.805,6.029,13.2936,4.59956,2471.912,2017-12-09T05:21:58Z
2017-12-09T03:23:32Z,42.805,6.029,13.2934,4.59956,2471.957,2017-12-09T05:25:01Z
2017-12-09T03:26:34Z,42.805,6.029,13.2937,4.59957,2471.912,2017-12-09T05:28:04Z
2017-12-09T03:29:37Z,42.805,6.029,13.2934,4.59956,2471.934,2017-12-09T05:31:07Z
2017-12-09T03:32:40Z,42.805,6.029,13.2937,4.59956,2471.897,2017-12-09T05:34:10Z
2017-12-09T03:35:43Z,42.805,6.029,13.2937,4.59957,2471.934,2017-12-09T05:37:12Z
2017-12-09T03:38:46Z,42.805,6.029,13.2937,4.59958,2471.957,2017-12-09T05:40:15Z
2017-12-09T03:41:49Z,42.805,6.029,13.2935,4.59959,2471.889,2017-12-09T05:43:18Z
2017-12-09T03:44:52Z,42.805,6.029,13.2938,4.59957,2471.919,2017-12-09T05:46:21Z
2017-12-09T03:47:55Z,42.805,6.029,13.2935,4.59957,2471.912,2017-12-09T05:49:24Z
2017-12-09T03:50:58Z,42.805,6.029,13.2936,4.59958,2471.934,2017-12-09T05:52:27Z
2017-12-09T03:54:00Z,42.805,6.029,13.2940,4.59957,2471.919,2017-12-09T05:55:30Z
2017-12-09T03:57:03Z,42.805,6.029,13.2935,4.59958,2471.934,2017-12-09T05:58:33Z
2017-12-09T04:00:06Z,42.805,6.029,13.2940,4.59958,2471.889,2017-12-09T06:01:36Z
2017-12-09T04:03:09Z,42.805,6.029,13.2935,4.59958,2471.919,2017-12-09T06:04:38Z
2017-12-09T04:06:12Z,42.805,6.029,13.2937,4.59958,2471.912,2017-12-09T06:07:41Z
2017-12-09T04:09:15Z,42.805,6.029,13.2941,4.59957,2471.897,2017-12-09T06:10:44Z
2017-12-09T04:12:18Z,42.805,6.029,13.2936,4.59958,2471.912,2017-12-09T06:13:47Z
2017-12-09T04:15:21Z,42.805,6.029,13.2938,4.59958,2471.934,2017-12-09T06:16:50Z
2017-12-09T04:18:23Z,42.805,6.029,13.2938,4.59958,2471.934,2017-12-09T06:19:53Z
2017-12-09T04:21:26Z,42.805,6.029,13.2938,4.59957,2471.942,2017-12-09T06:22:56Z
2017-12-09T04:24:29Z,42.805,6.029,13.2939,4.59958,2471.912,2017-12-09T06:25:59Z
2017-12-09T04:27:32Z,42.805,6.029,13.2933,4.59958,2471.919,2017-12-09T06:29:02Z
2017-12-09T04:30:35Z,42.805,6.029,13.2939,4.59960,2471.912,2017-12-09T06:32:04Z
2017-12-09T04:33:38Z,42.805,6.029,13.2937,4.59958,2471.912,2017-12-09T06:35:07Z
2017-12-09T04:36:41Z,42.805,6.029,13.2939,4.59958,2471.897,2017-12-09T06:38:10Z
2017-12-09T04:39:44Z,42.805,6.029,13.2935,4.59958,2471.897,2017-12-09T06:41:13Z
2017-12-09T04:42:47Z,42.805,6.029,13.2939,4.59958,2471.912,2017-12-09T06:44:16Z
2017-12-09T04:45:49Z,42.805,6.029,13.2942,4.59958,2471.934,2017-12-09T06:47:19Z
2017-12-09T04:48:52Z,42.805,6.029,13.2937,4.59956,2471.919,2017-12-09T06:50:22Z
2017-12-09T04:51:55Z,42.805,6.029,13.2942,4.59958,2471.934,2017-12-09T06:53:25Z
2017-12-09T04:54:58Z,42.805,6.029,13.2939,4.59958,2471.957,2017-12-09T06:56:28Z
2017-12-09T04:58:01Z,42.805,6.029,13.2940,4.59957,2471.919,2017-12-09T06:59:30Z
2017-12-09T05:01:04Z,42.805,6.029,13.2937,4.59957,2471.934,2017-12-09T07:02:33Z
2017-12-09T05:04:07Z,42.805,6.029,13.2937,4.59958,2471.919,2017-12-09T07:05:36Z
2017-12-09T05:07:10Z,42.805,6.029,13.2939,4.59957,2471.866,2017-12-09T07:08:39Z
2017-12-09T05:10:13Z,42.805,6.029,13.2934,4.59956,2471.934,2017-12-09T07:11:42Z
2017-12-09T05:13:15Z,42.805,6.029,13.2935,4.59957,2471.897,2017-12-09T07:14:45Z
2017-12-09T05:16:18Z,42.805,6.029,13.2935,4.59958,2471.912,2017-12-09T07:17:48Z
2017-12-09T05:19:21Z,42.805,6.029,13.2939,4.59961,2471.889,2017-12-09T07:20:51Z
2017-12-09T05:22:24Z,42.805,6.029,13.2939,4.59958,2471.912,2017-12-09T07:23:54Z
2017-12-09T05:25:27Z,42.805,6.029,13.2938,4.59956,2471.874,2017-12-09T07:26:56Z
2017-12-09T05:28:30Z,42.805,6.029,13.2936,4.59958,2471.912,2017-12-09T07:29:59Z
2017-12-09T05:31:33Z,42.805,6.029,13.2938,4.59956,2471.897,2017-12-09T07:33:02Z
2017-12-09T05:34:36Z,42.805,6.029,13.2933,4.59956,2471.897,2017-12-09T07:36:05Z
2017-12-09T05:37:39Z,42.805,6.029,13.2939,4.59955,2471.912,2017-12-09T07:39:08Z
2017-12-09T05:40:41Z,42.805,6.029,13.2940,4.59956,2471.934,2017-12-09T07:42:11Z
2017-12-09T05:43:44Z,42.805,6.029,13.2937,4.59956,2471.934,2017-12-09T07:45:14Z
2017-12-09T05:46:47Z,42.805,6.029,13.2937,4.59956,2471.897,2017-12-09T07:48:17Z
2017-12-09T05:49:50Z,42.805,6.029,13.2942,4.59955,2471.889,2017-12-09T07:51:19Z
2017-12-09T05:52:53Z,42.805,6.029,13.2935,4.59959,2471.912,2017-12-09T07:54:22Z
2017-12-09T05:55:56Z,42.805,6.029,13.2935,4.59957,2471.934,2017-12-09T07:57:25Z
2017-12-09T05:58:59Z,42.805,6.029,13.2936,4.59957,2471.889,2017-12-09T08:00:28Z
2017-12-09T06:02:02Z,42.805,6.029,13.2936,4.59958,2471.912,2017-12-09T08:03:31Z
2017-12-09T06:05:05Z,42.805,6.029,13.2937,4.59958,2471.934,2017-12-09T08:06:34Z
2017-12-09T06:08:07Z,42.805,6.029,13.2939,4.59956,2471.912,2017-12-09T08:09:37Z
2017-12-09T06:11:10Z,42.805,6.029,13.2938,4.59956,2471.919,2017-12-09T08:12:40Z
2017-12-09T06:14:13Z,42.805,6.029,13.2935,4.59956,2471.889,2017-12-09T08:15:43Z
2017-12-09T06:17:16Z,42.805,6.029,13.2937,4.59955,2471.919,2017-12-09T08:18:45Z
2017-12-09T06:20:19Z,42.805,6.029,13.2935,4.59956,2471.874,2017-12-09T08:21:48Z
2017-12-09T06:23:22Z,42.805,6.029,13.2940,4.59956,2471.897,2017-12-09T08:24:51Z
2017-12-09T06:26:25Z,42.805,6.029,13.2940,4.59956,2471.942,2017-12-09T08:27:54Z
2017-12-09T06:29:28Z,42.805,6.029,13.2942,4.59960,2471.897,2017-12-09T08:30:57Z
2017-12-09T06:32:30Z,42.805,6.029,13.2939,4.59958,2471.897,2017-12-09T08:34:00Z
2017-12-09T06:35:33Z,42.805,6.029,13.2936,4.59957,2471.934,2017-12-09T08:37:03Z
2017-12-09T06:38:36Z,42.805,6.029,13.2937,4.59956,2471.912,2017-12-09T08:40:06Z
2017-12-09T06:41:39Z,42.805,6.029,13.2936,4.59957,2471.912,2017-12-09T08:43:09Z
2017-12-09T06:44:42Z,42.805,6.029,13.2939,4.59956,2471.934,2017-12-09T08:46:11Z
2017-12-09T06:47:45Z,42.805,6.029,13.2940,4.59957,2471.934,2017-12-09T08:49:14Z
2017-12-09T06:50:48Z,42.805,6.029,13.2934,4.59956,2471.912,2017-12-09T08:52:17Z
2017-12-09T06:53:51Z,42.805,6.029,13.2935,4.59956,2471.912,2017-12-09T08:55:20Z
2017-12-09T06:56:54Z,42.805,6.029,13.2939,4.59960,2471.919,2017-12-09T08:58:23Z
2017-12-09T06:59:56Z,42.805,6.029,13.2938,4.59956,2471.889,2017-12-09T09:01:26Z
2017-12-09T07:02:59Z,42.805,6.029,13.2935,4.59956,2471.934,2017-12-09T09:04:29Z
2017-12-09T07:06:02Z,42.805,6.029,13.2937,4.59957,2471.934,2017-12-09T09:07:32Z
2017-12-09T07:09:05Z,42.805,6.029,13.2940,4.59955,2471.934,2017-12-09T09:10:35Z
2017-12-09T07:12:08Z,42.805,6.029,13.2939,4.59958,2471.957,2017-12-09T09:13:37Z
2017-12-09T07:15:11Z,42.805,6.029,13.2934,4.59961,2471.971,2017-12-09T09:16:40Z
2017-12-09T07:18:14Z,42.805,6.029,13.2934,4.59957,2471.957,2017-12-09T09:19:43Z
2017-12-09T07:21:17Z,42.805,6.029,13.2935,4.59955,2471.979,2017-12-09T09:22:46Z
2017-12-09T07:24:20Z,42.805,6.029,13.2937,4.59956,2471.919,2017-12-09T09:25:49Z
2017-12-09T07:27:22Z,42.805,6.029,13.2937,4.59956,2471.934,2017-12-09T09:28:52Z
2017-12-09T07:30:25Z,42.805,6.029,13.2939,4.59956,2471.964,2017-12-09T09:31:55Z
2017-12-09T07:33:28Z,42.805,6.029,13.2935,4.59956,2471.934,2017-12-09T09:34:58Z
2017-12-09T07:36:31Z,42.805,6.029,13.2935,4.59955,2471.942,2017-12-09T09:38:01Z
2017-12-09T07:39:34Z,42.805,6.029,13.2935,4.59956,2471.979,2017-12-09T09:41:03Z
2017-12-09T07:42:37Z,42.805,6.029,13.2939,4.59957,2471.957,2017-12-09T09:44:06Z
2017-12-09T07:45:40Z,42.805,6.029,13.2936,4.59956,2471.979,2017-12-09T09:47:09Z
2017-12-09T07:48:43Z,42.805,6.029,13.2936,4.59958,2471.979,2017-12-09T09:50:12Z
2017-12-09T07:51:46Z,42.805,6.029,13.2940,4.59958,2471.942,2017-12-09T09:53:15Z
2017-12-09T07:54:48Z,42.805,6.029,13.2941,4.59956,2471.979,2017-12-09T09:56:18Z
2017-12-09T07:57:51Z,42.805,6.029,13.2936,4.59956,2471.964,2017-12-09T09:59:21Z
2017-12-09T08:00:54Z,42.805,6.029,13.2938,4.59956,2472.002,2017-12-09T10:02:24Z
2017-12-09T08:03:57Z,42.805,6.029,13.2935,4.59959,2472.002,2017-12-09T10:05:27Z
2017-12-09T08:07:00Z,42.805,6.029,13.2933,4.59961,2472.002,2017-12-09T10:08:29Z
2017-12-09T08:10:03Z,42.805,6.029,13.2940,4.59961,2471.964,2017-12-09T10:11:32Z
2017-12-09T08:13:06Z,42.805,6.029,13.2939,4.59961,2471.979,2017-12-09T10:14:35Z
2017-12-09T08:16:09Z,42.805,6.029,13.2940,4.59956,2471.987,2017-12-09T10:17:38Z
2017-12-09T08:19:12Z,42.805,6.029,13.2939,4.59956,2472.002,2017-12-09T10:20:41Z
2017-12-09T08:22:14Z,42.805,6.029,13.2939,4.59955,2471.987,2017-12-09T10:23:44Z
2017-12-09T08:25:17Z,42.805,6.029,13.2937,4.59956,2471.964,2017-12-09T10:26:47Z
2017-12-09T08:28:20Z,42.805,6.029,13.2935,4.59964,2472.01,2017-12-09T10:29:50Z
2017-12-09T08:31:23Z,42.805,6.029,13.2939,4.59956,2471.987,2017-12-09T10:32:53Z
2017-12-09T08:34:26Z,42.805,6.029,13.2940,4.59959,2472.002,2017-12-09T10:35:55Z
2017-12-09T08:37:29Z,42.805,6.029,13.2939,4.59962,2472.047,2017-12-09T10:38:58Z
2017-12-09T08:40:32Z,42.805,6.029,13.2941,4.59959,2472.002,2017-12-09T10:42:01Z
2017-12-09T08:43:35Z,42.805,6.029,13.2939,4.59957,2472.01,2017-12-09T10:45:04Z
2017-12-09T08:46:38Z,42.805,6.029,13.2939,4.59956,2472.024,2017-12-09T10:48:07Z
2017-12-09T08:49:41Z,42.805,6.029,13.2940,4.59962,2472.024,2017-12-09T10:51:10Z
2017-12-09T08:52:43Z,42.805,6.029,13.2938,4.59959,2472.01,2017-12-09T10:54:13Z
2017-12-09T08:55:46Z,42.805,6.029,13.2941,4.59964,2472.069,2017-12-09T10:57:16Z
2017-12-09T08:58:49Z,42.805,6.029,13.2936,4.59957,2472.024,2017-12-09T11:00:19Z
2017-12-09T09:01:52Z,42.805,6.029,13.2937,4.59956,2472.01,2017-12-09T11:03:21Z
2017-12-09T09:04:55Z,42.805,6.029,13.2936,4.59958,2472.047,2017-12-09T11:06:24Z
2017-12-09T09:07:58Z,42.805,6.029,13.2941,4.59955,2472.032,2017-12-09T11:09:27Z
2017-12-09T09:11:01Z,42.805,6.029,13.2933,4.59956,2472.055,2017-12-09T11:12:30Z
2017-12-09T09:14:04Z,42.805,6.029,13.2941,4.59957,2472.032,2017-12-09T11:15:33Z
2017-12-09T09:17:07Z,42.805,6.029,13.2937,4.59957,2472.047,2017-12-09T11:18:36Z
2017-12-09T09:20:09Z,42.805,6.029,13.2935,4.59969,2472.055,2017-12-09T11:21:39Z
2017-12-09T09:23:12Z,42.805,6.029,13.2938,4.59959,2472.047,2017-12-09T11:24:42Z
2017-12-09T09:26:15Z,42.805,6.029,13.2940,4.59963,2472.092,2017-12-09T11:27:45Z
2017-12-09T09:29:18Z,42.805,6.029,13.2940,4.59958,2472.069,2017-12-09T11:30:48Z
2017-12-09T09:32:21Z,42.805,6.029,13.2939,4.59957,2472.055,2017-12-09T11:33:50Z
2017-12-09T09:35:24Z,42.805,6.029,13.2939,4.59961,2472.055,2017-12-09T11:36:53Z
2017-12-09T09:38:27Z,42.805,6.029,13.2939,4.59958,2472.092,2017-12-09T11:39:56Z
2017-12-09T09:41:30Z,42.805,6.029,13.2936,4.59969,2472.069,2017-12-09T11:42:59Z
2017-12-09T09:44:33Z,42.805,6.029,13.2938,4.59956,2472.069,2017-12-09T11:46:02Z
2017-12-09T09:47:35Z,42.805,6.029,13.2938,4.59957,2472.107,2017-12-09T11:49:05Z
2017-12-09T09:50:38Z,42.805,6.029,13.2938,4.59958,2472.115,2017-12-09T11:52:08Z
2017-12-09T09:53:41Z,42.805,6.029,13.2940,4.59960,2472.1,2017-12-09T11:55:11Z
2017-12-09T09:56:44Z,42.805,6.029,13.2940,4.59958,2472.092,2017-12-09T11:58:14Z
2017-12-09T09:59:47Z,42.805,6.029,13.2941,4.59961,2472.092,2017-12-09T12:01:16Z
2017-12-09T10:02:50Z,42.805,6.029,13.2936,4.59958,2472.1,2017-12-09T12:04:19Z
2017-12-09T10:05:53Z,42.805,6.029,13.2939,4.59961,2472.092,2017-12-09T12:07:22Z
2017-12-09T10:08:56Z,42.805,6.029,13.2939,4.59969,2472.092,2017-12-09T12:10:25Z
2017-12-09T10:11:59Z,42.805,6.029,13.2941,4.59974,2472.092,2017-12-09T12:13:28Z
2017-12-09T10:15:01Z,42.805,6.029,13.2940,4.59959,2472.092,2017-12-09T12:16:31Z
2017-12-09T10:18:04Z,42.805,6.029,13.2939,4.59960,2472.115,2017-12-09T12:19:34Z
2017-12-09T10:21:07Z,42.805,6.029,13.2938,4.59955,2472.115,2017-12-09T12:22:37Z
2017-12-09T10:24:10Z,42.805,6.029,13.2937,4.59958,2472.092,2017-12-09T12:25:40Z
2017-12-09T10:27:13Z,42.805,6.029,13.2935,4.59958,2472.123,2017-12-09T12:28:42Z
2017-12-09T10:30:16Z,42.805,6.029,13.2935,4.59962,2472.115,2017-12-09T12:31:45Z
2017-12-09T10:33:19Z,42.805,6.029,13.2938,4.59961,2472.137,2017-12-09T12:34:48Z
2017-12-09T10:36:22Z,42.805,6.029,13.2938,4.59964,2472.115,2017-12-09T12:37:51Z
2017-12-09T10:39:25Z,42.805,6.029,13.2933,4.59963,2472.115,2017-12-09T12:40:54Z
2017-12-09T10:42:28Z,42.805,6.029,13.2940,4.59962,2472.092,2017-12-09T12:43:57Z
2017-12-09T10:45:30Z,42.805,6.029,13.2941,4.59963,2472.115,2017-12-09T12:47:00Z
2017-12-09T10:48:33Z,42.805,6.029,13.2937,4.59990,2472.115,2017-12-09T12:50:03Z
2017-12-09T10:51:36Z,42.805,6.029,13.2939,4.59995,2472.137,2017-12-09T12:53:06Z
2017-12-09T10:54:39Z,42.805,6.029,13.2968,4.59990,2472.123,2017-12-09T12:56:09Z
2017-12-09T10:57:42Z,42.805,6.029,13.2936,4.59995,2472.077,2017-12-09T12:59:11Z
2017-12-09T11:00:45Z,42.805,6.029,13.2993,4.59968,2472.115,2017-12-09T13:02:14Z
2017-12-09T11:03:48Z,42.805,6.029,13.2936,4.59969,2472.115,2017-12-09T13:05:17Z
2017-12-09T11:06:51Z,42.805,6.029,13.2934,4.59978,2472.1,2017-12-09T13:08:20Z
2017-12-09T11:09:54Z,42.805,6.029,13.2937,4.59979,2472.115,2017-12-09T13:11:23Z
2017-12-09T11:12:56Z,42.805,6.029,13.2937,4.59972,2472.115,2017-12-09T13:14:26Z
2017-12-09T11:15:59Z,42.805,6.029,13.2935,4.59967,2472.129,2017-12-09T13:17:29Z
2017-12-09T11:19:02Z,42.805,6.029,13.2933,4.59959,2472.16,2017-12-09T13:20:32Z
2017-12-09T11:22:05Z,42.805,6.029,13.2937,4.59960,2472.16,2017-12-09T13:23:35Z
2017-12-09T11:25:08Z,42.805,6.029,13.2939,4.59963,2472.137,2017-12-09T13:26:37Z
2017-12-09T11:28:11Z,42.805,6.029,13.2935,4.59963,2472.123,2017-12-09T13:29:40Z
2017-12-09T11:31:14Z,42.805,6.029,13.2945,4.60002,2472.137,2017-12-09T13:32:43Z
2017-12-09T11:34:17Z,42.805,6.029,13.2949,4.60029,2472.137,2017-12-09T13:35:46Z
2017-12-09T11:37:20Z,42.805,6.029,13.2936,4.60001,2472.145,2017-12-09T13:38:49Z
2017-12-09T11:40:22Z,42.805,6.029,13.2936,4.59992,2472.123,2017-12-09T13:41:52Z
2017-12-09T11:43:25Z,42.805,6.029,13.2938,4.59967,2472.145,2017-12-09T13:44:55Z
2017-12-09T11:46:28Z,42.805,6.029,13.2940,4.59996,2472.077,2017-12-09T13:47:58Z
2017-12-09T11:49:31Z,42.805,6.029,13.2958,4.59971,2472.137,2017-12-09T13:51:01Z
2017-12-09T11:52:34Z,42.805,6.029,13.2981,4.59978,2472.137,2017-12-09T13:54:03Z
2017-12-09T11:55:37Z,42.805,6.029,13.2973,4.60032,2472.123,2017-12-09T13:57:06Z
2017-12-09T11:58:40Z,42.805,6.029,13.2969,4.60039,2472.137,2017-12-09T14:00:09Z
2017-12-09T12:01:43Z,42.805,6.029,13.2975,4.59997,2472.137,2017-12-09T14:03:12Z
2017-12-09T12:04:46Z,42.805,6.029,13.2966,4.60009,2472.137,2017-12-09T14:06:15Z
2017-12-09T12:07:48Z,42.805,6.029,13.2966,4.60049,2472.123,2017-12-09T14:09:18Z
2017-12-09T12:10:51Z,42.805,6.029,13.2972,4.60002,2472.115,2017-12-09T14:12:21Z
2017-12-09T12:13:54Z,42.805,6.029,13.2987,4.59995,2472.137,2017-12-09T14:15:24Z
2017-12-09T12:16:57Z,42.805,6.029,13.2975,4.60010,2472.123,2017-12-09T14:18:27Z
2017-12-09T12:20:00Z,42.805,6.029,13.2984,4.59990,2472.16,2017-12-09T14:21:29Z
2017-12-09T12:23:03Z,42.805,6.029,13.2979,4.60006,2472.123,2017-12-09T14:24:32Z
2017-12-09T12:26:06Z,42.805,6.029,13.2984,4.60024,2472.137,2017-12-09T14:27:35Z
2017-12-09T12:29:09Z,42.805,6.029,13.2981,4.60080,2472.137,2017-12-09T14:30:38Z
2017-12-09T12:32:12Z,42.805,6.029,13.2970,4.60012,2472.137,2017-12-09T14:33:41Z
2017-12-09T12:35:15Z,42.805,6.029,13.2998,4.59989,2472.115,2017-12-09T14:36:44Z
2017-12-09T12:38:17Z,42.805,6.029,13.2988,4.60016,2472.16,2017-12-09T14:39:47Z
2017-12-09T12:41:20Z,42.805,6.029,13.3011,4.60020,2472.152,2017-12-09T14:42:50Z
2017-12-09T12:44:23Z,42.805,6.029,13.3010,4.60032,2472.137,2017-12-09T14:45:53Z
2017-12-09T12:47:26Z,42.805,6.029,13.2999,4.60138,2472.092,2017-12-09T14:48:56Z
2017-12-09T12:50:29Z,42.805,6.029,13.3019,4.60001,2472.115,2017-12-09T14:51:58Z
2017-12-09T12:53:32Z,42.805,6.029,13.2997,4.59995,2472.137,2017-12-09T14:55:01Z
2017-12-09T12:56:35Z,42.805,6.029,13.2993,4.60015,2472.115,2017-12-09T14:58:04Z
2017-12-09T12:59:38Z,42.805,6.029,13.2983,4.60030,2472.115,2017-12-09T15:01:07Z
2017-12-09T13:02:41Z,42.805,6.029,13.3015,4.60020,2472.115,2017-12-09T15:04:10Z
2017-12-09T13:05:43Z,42.805,6.029,13.2972,4.59998,2472.1,2017-12-09T15:07:13Z
2017-12-09T13:08:46Z,42.805,6.029,13.2979,4.60004,2472.137,2017-12-09T15:10:16Z
2017-12-09T13:11:49Z,42.805,6.029,13.2953,4.59987,2472.115,2017-12-09T15:13:19Z
2017-12-09T13:14:52Z,42.805,6.029,13.2961,4.60028,2472.137,2017-12-09T15:16:22Z
2017-12-09T13:17:55Z,42.805,6.029,13.2961,4.59992,2472.123,2017-12-09T15:19:24Z
2017-12-09T13:20:58Z,42.805,6.029,13.2968,4.59995,2472.115,2017-12-09T15:22:27Z
2017-12-09T13:24:01Z,42.805,6.029,13.2979,4.59988,2472.137,2017-12-09T15:25:30Z
2017-12-09T13:27:04Z,42.805,6.029,13.2957,4.59991,2472.092,2017-12-09T15:28:33Z
2017-12-09T13:30:07Z,42.805,6.029,13.2988,4.60000,2472.115,2017-12-09T15:31:36Z
2017-12-09T13:33:09Z,42.805,6.029,13.2962,4.59990,2472.115,2017-12-09T15:34:39Z
2017-12-09T13:36:12Z,42.805,6.029,13.3005,4.59983,2472.115,2017-12-09T15:37:42Z
2017-12-09T13:39:15Z,42.805,6.029,13.2999,4.59983,2472.115,2017-12-09T15:40:45Z
2017-12-09T13:42:18Z,42.805,6.029,13.2988,4.59986,2472.1,2017-12-09T15:43:48Z
2017-12-09T13:45:21Z,42.805,6.029,13.3012,4.59980,2472.129,2017-12-09T15:46:50Z
2017-12-09T13:48:24Z,42.805,6.029,13.2979,4.59986,2472.1,2017-12-09T15:49:53Z
2017-12-09T13:51:27Z,42.805,6.029,13.2972,4.59986,2472.115,2017-12-09T15:52:56Z
2017-12-09T13:54:30Z,42.805,6.029,13.2961,4.60008,2472.137,2017-12-09T15:55:59Z
2017-12-09T13:57:33Z,42.805,6.029,13.2979,4.59985,2472.092,2017-12-09T15:59:02Z
2017-12-09T14:00:35Z,42.805,6.029,13.2973,4.59988,2472.077,2017-12-09T16:02:05Z
2017-12-09T14:03:38Z,42.805,6.029,13.2975,4.59998,2472.1,2017-12-09T16:05:08Z
2017-12-09T14:06:41Z,42.805,6.029,13.2975,4.59995,2472.092,2017-12-09T16:08:11Z
2017-12-09T14:09:44Z,42.805,6.029,13.2972,4.60003,2472.115,2017-12-09T16:11:14Z
2017-12-09T14:12:47Z,42.805,6.029,13.2964,4.59970,2472.077,2017-12-09T16:14:16Z
2017-12-09T14:15:50Z,42.805,6.029,13.2970,4.59978,2472.055,2017-12-09T16:17:19Z
2017-12-09T14:18:53Z,42.805,6.029,13.2959,4.59984,2472.092,2017-12-09T16:20:22Z
2017-12-09T14:21:56Z,42.805,6.029,13.2968,4.59980,2472.047,2017-12-09T16:23:25Z
2017-12-09T14:24:59Z,42.805,6.029,13.2963,4.59988,2472.092,2017-12-09T16:26:28Z
2017-12-09T14:28:01Z,42.805,6.029,13.2979,4.59975,2472.092,2017-12-09T16:29:31Z
2017-12-09T14:31:04Z,42.805,6.029,13.2966,4.59987,2472.092,2017-12-09T16:32:34Z
2017-12-09T14:34:07Z,42.805,6.029,13.2964,4.59987,2472.092,2017-12-09T16:35:37Z
2017-12-09T14:37:10Z,42.805,6.029,13.2966,4.59983,2472.047,2017-12-09T16:38:40Z
2017-12-09T14:40:13Z,42.805,6.029,13.2968,4.59980,2472.092,2017-12-09T16:41:43Z
2017-12-09T14:43:16Z,42.805,6.029,13.2961,4.59975,2472.055,2017-12-09T16:44:45Z
2017-12-09T14:46:19Z,42.805,6.029,13.2957,4.59972,2472.069,2017-12-09T16:47:48Z
2017-12-09T14:49:22Z,42.805,6.029,13.2958,4.59982,2472.092,2017-12-09T16:50:51Z
2017-12-09T14:52:25Z,42.805,6.029,13.2966,4.59975,2472.069,2017-12-09T16:53:54Z
2017-12-09T14:55:28Z,42.805,6.029,13.2973,4.59977,2472.077,2017-12-09T16:56:57Z
2017-12-09T14:58:30Z,42.805,6.029,13.2960,4.59983,2472.055,2017-12-09T17:00:00Z